Regional Weather Roundup
Issued by NWS Upton, NY

Current Version | Previous Version | Graphics & Text | Print | Product List | Glossary Off
Versions: 1 2 3 4 5 6 7 8 9 10 11 12 13 14 15 16 17 18 19 20 21 22 23 24 25 26 27 28 29 30 31 32 33 34 35 36 37 38 39 40 41 42 43 44 45 46 47 48 49 50

000
ASUS41 KOKX 152308
RWROKX

REGIONAL WEATHER ROUNDUP
NATIONAL WEATHER SERVICE NEW YORK NY
700 PM EDT SUN OCT 15 2017

NOTE: "FAIR" INDICATES FEW OR NO CLOUDS BELOW 12,000 FEET WITH NO
SIGNIFICANT WEATHER AND/OR OBSTRUCTIONS TO VISIBILITY.

NYZ071-072-176-178-NJZ106-104-160000-
NEW YORK CITY METRO AREA

CITY           SKY/WX    TMP DP  RH WIND       PRES   REMARKS
Central Park   CLOUDY    70  61  73 VRB7      29.88F
Bronx Bot Gard   N/A     70  59  68 S3        29.87F
LaGuardia APRT CLOUDY    71  61  70 SW13      29.85F
Kennedy INTL   CLOUDY    70  64  81 SW14      29.87F
Breezy Point     N/A     68 N/A N/A SW6         N/A
Newark/Liberty CLOUDY    70  62  76 SW13      29.85F
Teterboro      CLOUDY    71  61  70 SW20      29.84F
$$

NYZ177-179-078>081-160000-
LONG ISLAND NEW YORK

CITY           SKY/WX    TMP DP  RH WIND       PRES   REMARKS
Jones Beach      N/A     66 N/A N/A SW7         N/A
Matinecock PT    N/A     70 N/A N/A SW21        N/A
Farmingdale    CLOUDY    68  65  90 SW13      29.87F
MacArthur/ISP  CLOUDY    68  66  93 SW15G24   29.86F
Shirley        CLOUDY    70  67  90 S13G23    29.87S
Mt Sinai Harb    N/A    N/A N/A N/A SW7         N/A
Westhampton    NOT AVBL
East Hampton   CLOUDY    65  64  94 SW15G21   29.86S
Montauk          N/A     67  65  93 SW12G22   29.87F
$$

NYZ052-065-067-160000-
HUDSON VALLEY

CITY           SKY/WX    TMP DP  RH WIND       PRES   REMARKS
White Plains   MOCLDY    69  61  75 SW8       29.84F
Larchmont Harb   N/A     70 N/A N/A S20         N/A
Croton On Huds   N/A     70 N/A N/A S12G22      N/A
Newburgh       CLOUDY    68  63  83 SW9       29.82F
Montgomery     CLOUDY    68  61  78 SW14G25   29.81F
Poughkeepsie   CLOUDY    70  60  70 SW10G17   29.79F
Albany         PTCLDY    69  60  73 S22G33    29.67F
$$

NJZ001-105-106-008-010-013-015-019>022-104-160000-
NEW JERSEY

CITY           SKY/WX    TMP DP  RH WIND       PRES   REMARKS
Newark/Liberty CLOUDY    70  62  76 SW13      29.85F
Teterboro      CLOUDY    71  61  70 SW20      29.84F
Caldwell       CLOUDY    68  63  84 SW8       29.85F
Somerville     CLOUDY    69  63  81 S8        29.84F
Linden         CLOUDY    69  61  74 CALM      29.86F
Perth Amboy      N/A     68 N/A N/A SW12        N/A
Sussex         CLOUDY    67  62  84 SW8       29.82F
Andover          N/A     66  62  87 VRB6      29.85F
Trenton        CLOUDY    69  63  81 SW13      29.87F
Millville      CLEAR     71  67  87 VRB3      29.91S
Atlantic City  PTCLDY    69  65  86 S6        29.91F
Wrightstown    CLOUDY    68  63  83 SW8       29.87F
Toms River       N/A     69  63  81 SW8       29.90F
Belmar         MOCLDY    69  63  81 SW9       29.90S
$$

PAZ047>061-062-071-160000-
EASTERN PENNSYLVANIA

CITY           SKY/WX    TMP DP  RH WIND       PRES   REMARKS
Philadelphia   PTCLDY    69  64  84 S8        29.88F
Allentown      CLOUDY    69  62  78 SW5       29.85F
Scranton       CLEAR     68  61  78 S9        29.79F
$$

CTZ002-004>006-009-010-012-RIZ004-006-007-MAZ004-011-015-160000-
SOUTHERN NEW ENGLAND
 IN CT

CITY           SKY/WX    TMP DP  RH WIND       PRES   REMARKS
Bradley INTL   PTCLDY    70  62  76 S16G23    29.78S
Hartford       CLOUDY    71  65  81 S10G24    29.79F
Danbury        CLOUDY    70  62  76 SW10G20   29.83F
Wtrbury/Oxford CLOUDY    68  62  81 S10G16    29.84F
Norwalk Harbor   N/A     70 N/A N/A SW21        N/A
Bridgeport     CLOUDY    71  64  78 SW14      29.83F
Meriden        CLOUDY    70  63  78 SW12G21   29.82F
New Haven      CLOUDY    70  65  84 SW8       29.83F
Chester        CLOUDY    68  66  94 S10G16    29.84F
Groton         CLOUDY    68  65  90 SW14      29.85R
Wilimantic     CLOUDY    70  64  81 SW14G22   29.81F

 IN RI

CITY           SKY/WX    TMP DP  RH WIND       PRES   REMARKS
Providence     CLOUDY    69  65  86 SW14G25   29.83S
Block Island   CLEAR     65  63  93 SW22G28   29.86F
Westerly       MOCLDY    68  65  90 SW15G23   29.86S
 IN MA

CITY           SKY/WX    TMP DP  RH WIND       PRES   REMARKS
Boston         PTCLDY    69  63  81 S18G25    29.74F
Worcester      CLOUDY    65  59  81 SW18G25   29.78F
Westfield      MOCLDY    70  63  78 S12       29.75F
Provincetown   CLOUDY    65  63  93 SW18G24   29.80F
Nantucket      CLOUDY    64  64 100 SW23G29   29.89S FOG
$$

ANZ330-335-338-340-345-350-353-355-160000-
COASTAL MARINE OBSERVATIONS


STATION/POSITION TIME  SKY/WX   TEMP    WIND        PRES    VSBY  WAVE
                                AIR SEA DIR/SP/G                  HT/PER
                 (UTC)          (F)     (DEG/KT/KT) (MB)    (MI)  (FT/S)
NY HARB ENTRANCE 2250            68 67  210/ 16/ 19 1010.7          4/ 9
20 S FIRE ISLAND 2250            67 65  220/ 19/ 21 1012.0          5/ 9
GREAT SOUTH BAY  2230            67 66  220/ 17/ 21   N/A
15 E BARNEGAT LI 2230               68                N/A           5/ 8
HUDSON CANYON    2250            67 65  210/ 16/ 19 1013.3          5/ 9
KINGS POINT      2242            70 69  260/ 13/ 19 1011.7
EXECUTION ROCKS  2245            71     210/ 17/ 25   N/A
WESTERN LI SOUND 2149            71     220/ 19/ 27   N/A           2/ 3
CENTRAL LI SOUND 2215            69     220/ 16/ 21   N/A           1
EASTERN LI SOUND NOT AVBL
ROBBINS REEF     2248            70     220/  8/ 11 1011.8
$$


>>>>>>>>>>>>>>>>>>>>>>>>>>>> KEY <<<<<<<<<<<<<<<<<<<<<<<<<<<
>                                                          <
>     SKY/WX - Sky Condition/Present Weather               <
>     TMP    - Temperature in Fahrenheit                   <
>     DP     - Dew Point in Fahrenheit                     <
>     RH     - Relative Humidity in Percent                <
>     WIND   - Direction (from) and Speed in MPH           <
>     PRES   - Mean Sea Level Pressure (inches of Hg)      <
>     WCI    - Wind Chill Index                            <
>     VSB    - VISIBILITY IN MILES                         <
>     HX     - HEAT INDEX                                  <
>     TC     - TEMPERATURE IN CELSIUS                      <
>     VRB    - VARIABLE WIND DIRECTION                     <
>                                                          <
>>>>>>>>>>>>>>>>>>>>>>>>>>>> KEY <<<<<<<<<<<<<<<<<<<<<<<<<<<



USA.gov is the U.S. government's official web portal to all federal, state and local government web resources and services.